Location: Unnamed
(25.2826°S, 57.6099°W)
Time: 23:23:56
(UTC-04:00)

Envisat - Pass Details

Date: 24 January 2026
Orbit: 761 x 763 km, 98.4° (Epoch: 18 February)

Event Time Altitude Azimuth Distance (km) Brightness Sun altitude
Exits shadow 01:05:14 14° 152° (SSE) 2,075 5.8 -43.0°
Drops below altitude 10° 01:06:03 10° 159° (SSE) 2,314 6.1 -42.9°
Sets 01:08:48 0° 173° (S) 3,248 7.0 -42.7°
